Year,Month,Day,Hour,Minute,Value (Times are PST for temperature in C)
2016,10,23,00,00,10.10
2016,10,23,00,01,10.10
2016,10,23,00,02,10.10
2016,10,23,00,03,10.10
2016,10,23,00,04,10.20
2016,10,23,00,05,10.20
2016,10,23,00,06,10.20
2016,10,23,00,07,10.20
2016,10,23,00,08,10.20
2016,10,23,00,09,10.30
2016,10,23,00,10,10.30
2016,10,23,00,11,10.30
2016,10,23,00,12,10.40
2016,10,23,00,13,10.40
2016,10,23,00,14,10.50
2016,10,23,00,15,10.50
2016,10,23,00,16,10.60
2016,10,23,00,17,10.60
2016,10,23,00,18,10.70
2016,10,23,00,19,10.70
2016,10,23,00,20,10.70
2016,10,23,00,21,10.80
2016,10,23,00,22,10.80
2016,10,23,00,23,10.80
2016,10,23,00,24,10.80
2016,10,23,00,25,10.80
2016,10,23,00,26,10.90
2016,10,23,00,27,10.90
2016,10,23,00,28,10.90
2016,10,23,00,29,10.90
2016,10,23,00,30,10.90
2016,10,23,00,31,10.90
2016,10,23,00,32,10.90
2016,10,23,00,33,10.90
2016,10,23,00,34,11.00
2016,10,23,00,35,11.00
2016,10,23,00,36,11.00
2016,10,23,00,37,11.00
2016,10,23,00,38,11.00
2016,10,23,00,39,11.00
2016,10,23,00,40,11.10
2016,10,23,00,41,11.10
2016,10,23,00,42,11.10
2016,10,23,00,43,11.10
2016,10,23,00,44,11.10
2016,10,23,00,45,11.10
2016,10,23,00,46,11.10
2016,10,23,00,47,11.10
2016,10,23,00,48,11.10
2016,10,23,00,49,11.20
2016,10,23,00,50,11.20
2016,10,23,00,51,11.20
2016,10,23,00,52,11.20
2016,10,23,00,53,11.20
2016,10,23,00,54,11.20
2016,10,23,00,55,11.20
2016,10,23,00,56,11.30
2016,10,23,00,57,11.30
2016,10,23,00,58,11.30
2016,10,23,00,59,11.30
2016,10,23,01,00,11.30
2016,10,23,01,01,11.40
2016,10,23,01,02,11.40
2016,10,23,01,03,11.40
2016,10,23,01,04,11.40
2016,10,23,01,05,11.40
2016,10,23,01,06,11.40
2016,10,23,01,07,11.50
2016,10,23,01,08,11.50
2016,10,23,01,09,11.50
2016,10,23,01,10,11.50
2016,10,23,01,11,11.60
2016,10,23,01,12,11.60
2016,10,23,01,13,11.60
2016,10,23,01,14,11.60
2016,10,23,01,15,11.60
2016,10,23,01,16,11.60
2016,10,23,01,17,11.60
2016,10,23,01,18,11.70
2016,10,23,01,19,11.70
2016,10,23,01,20,11.70
2016,10,23,01,21,11.70
2016,10,23,01,22,11.70
2016,10,23,01,23,11.70
2016,10,23,01,24,11.70
2016,10,23,01,25,11.70
2016,10,23,01,26,11.70
2016,10,23,01,27,11.70
2016,10,23,01,28,11.70
2016,10,23,01,29,11.70
2016,10,23,01,30,11.70
2016,10,23,01,31,11.70
2016,10,23,01,32,11.70
2016,10,23,01,33,11.70
2016,10,23,01,34,11.70
2016,10,23,01,35,11.70
2016,10,23,01,36,11.70
2016,10,23,01,37,11.70
2016,10,23,01,38,11.80
2016,10,23,01,39,11.80
2016,10,23,01,40,11.80
2016,10,23,01,41,11.80
2016,10,23,01,42,11.80
2016,10,23,01,43,11.80
2016,10,23,01,44,11.80
2016,10,23,01,45,11.80
2016,10,23,01,46,11.80
2016,10,23,01,47,11.80
2016,10,23,01,48,11.80
2016,10,23,01,49,11.80
2016,10,23,01,50,11.80
2016,10,23,01,51,11.80
2016,10,23,01,52,11.80
2016,10,23,01,53,11.80
2016,10,23,01,54,11.80
2016,10,23,01,55,11.80
2016,10,23,01,56,11.80
2016,10,23,01,57,11.80
2016,10,23,01,58,11.80
2016,10,23,01,59,11.80
2016,10,23,02,00,11.70
2016,10,23,02,01,11.70
2016,10,23,02,02,11.70
2016,10,23,02,03,11.70
2016,10,23,02,04,11.70
2016,10,23,02,05,11.70
2016,10,23,02,06,11.70
2016,10,23,02,07,11.70
2016,10,23,02,08,11.70
2016,10,23,02,09,11.70
2016,10,23,02,10,11.70
2016,10,23,02,11,11.70
2016,10,23,02,12,11.60
2016,10,23,02,13,11.60
2016,10,23,02,14,11.60
2016,10,23,02,15,11.60
2016,10,23,02,16,11.60
2016,10,23,02,17,11.60
2016,10,23,02,18,11.60
2016,10,23,02,19,11.60
2016,10,23,02,20,11.50
2016,10,23,02,21,11.50
2016,10,23,02,22,11.50
2016,10,23,02,23,11.50
2016,10,23,02,24,11.50
2016,10,23,02,25,11.50
2016,10,23,02,26,11.50
2016,10,23,02,27,11.50
2016,10,23,02,28,11.50
2016,10,23,02,29,11.50
2016,10,23,02,30,11.50
2016,10,23,02,31,11.50
2016,10,23,02,32,11.50
2016,10,23,02,33,11.50
2016,10,23,02,34,11.50
2016,10,23,02,35,11.50
2016,10,23,02,36,11.50
2016,10,23,02,37,11.50
2016,10,23,02,38,11.50
2016,10,23,02,39,11.50
2016,10,23,02,40,11.50
2016,10,23,02,41,11.50
2016,10,23,02,42,11.50
2016,10,23,02,43,11.40
2016,10,23,02,44,11.40
2016,10,23,02,45,11.40
2016,10,23,02,46,11.40
2016,10,23,02,47,11.40
2016,10,23,02,48,11.40
2016,10,23,02,49,11.40
2016,10,23,02,50,11.40
2016,10,23,02,51,11.40
2016,10,23,02,52,11.40
2016,10,23,02,53,11.40
2016,10,23,02,54,11.40
2016,10,23,02,55,11.30
2016,10,23,02,56,11.30
2016,10,23,02,57,11.30
2016,10,23,02,58,11.30
2016,10,23,02,59,11.30
2016,10,23,03,00,11.30
2016,10,23,03,01,11.30
2016,10,23,03,02,11.30
2016,10,23,03,03,11.30
2016,10,23,03,04,11.30
2016,10,23,03,05,11.30
2016,10,23,03,06,11.30
2016,10,23,03,07,11.30
2016,10,23,03,08,11.30
2016,10,23,03,09,11.30
2016,10,23,03,10,11.30
2016,10,23,03,11,11.30
2016,10,23,03,12,11.30
2016,10,23,03,13,11.30
2016,10,23,03,14,11.30
2016,10,23,03,15,11.30
2016,10,23,03,16,11.30
2016,10,23,03,17,11.20
2016,10,23,03,18,11.20
2016,10,23,03,19,11.20
2016,10,23,03,20,11.30
2016,10,23,03,21,11.30
2016,10,23,03,22,11.30
2016,10,23,03,23,11.30
2016,10,23,03,24,11.30
2016,10,23,03,25,11.30
2016,10,23,03,26,11.30
2016,10,23,03,27,11.30
2016,10,23,03,28,11.30
2016,10,23,03,29,11.30
2016,10,23,03,30,11.30
2016,10,23,03,31,11.30
2016,10,23,03,32,11.20
2016,10,23,03,33,11.20
2016,10,23,03,34,11.30
2016,10,23,03,35,11.20
2016,10,23,03,36,11.20
2016,10,23,03,37,11.20
2016,10,23,03,38,11.20
2016,10,23,03,39,11.20
2016,10,23,03,40,11.20
2016,10,23,03,41,11.20
2016,10,23,03,42,11.20
2016,10,23,03,43,11.20
2016,10,23,03,44,11.20
2016,10,23,03,45,11.20
2016,10,23,03,46,11.20
2016,10,23,03,47,11.20
2016,10,23,03,48,11.20
2016,10,23,03,49,11.20
2016,10,23,03,50,11.20
2016,10,23,03,51,11.20
2016,10,23,03,52,11.20
2016,10,23,03,53,11.20
2016,10,23,03,54,11.20
2016,10,23,03,55,11.10
2016,10,23,03,56,11.10
2016,10,23,03,57,11.10
2016,10,23,03,58,11.10
2016,10,23,03,59,11.10
2016,10,23,04,00,11.10
2016,10,23,04,01,11.10
2016,10,23,04,02,11.10
2016,10,23,04,03,11.10
2016,10,23,05,04,11.10
2016,10,23,05,05,11.10
2016,10,23,05,06,11.10
2016,10,23,05,07,11.10
2016,10,23,05,08,11.10
2016,10,23,05,09,11.10
2016,10,23,05,10,11.10
2016,10,23,05,11,11.10
2016,10,23,05,12,11.10
2016,10,23,05,13,11.10
2016,10,23,05,14,11.10
2016,10,23,05,15,11.10
2016,10,23,05,16,11.10
2016,10,23,05,17,11.10
2016,10,23,05,18,11.10
2016,10,23,05,19,11.10
2016,10,23,05,20,11.10
2016,10,23,05,21,11.10
2016,10,23,05,22,11.10
2016,10,23,05,23,11.10
2016,10,23,05,24,11.10
2016,10,23,05,25,11.10
2016,10,23,05,26,11.10
2016,10,23,05,27,11.10
2016,10,23,05,28,11.00
2016,10,23,05,29,11.00
2016,10,23,05,30,11.00
2016,10,23,05,31,11.00
2016,10,23,05,32,11.00
2016,10,23,05,33,11.00
2016,10,23,05,34,11.00
2016,10,23,05,35,10.90
2016,10,23,05,36,10.90
2016,10,23,05,37,10.90
2016,10,23,05,38,10.90
2016,10,23,05,39,10.90
2016,10,23,05,40,10.90
2016,10,23,05,41,10.90
2016,10,23,05,42,10.90
2016,10,23,05,43,10.90
2016,10,23,05,44,10.90
2016,10,23,05,45,10.90
2016,10,23,05,46,10.90
2016,10,23,05,47,10.90
2016,10,23,05,48,10.90
2016,10,23,05,49,10.90
2016,10,23,05,50,10.90
2016,10,23,05,51,10.90
2016,10,23,05,52,10.90
2016,10,23,05,53,10.90
2016,10,23,05,54,10.80
2016,10,23,05,55,10.80
2016,10,23,05,56,10.80
2016,10,23,05,57,10.80
2016,10,23,05,58,10.80
2016,10,23,05,59,10.80
2016,10,23,06,00,10.80
2016,10,23,06,01,10.80
2016,10,23,06,02,10.80
2016,10,23,06,03,10.80
2016,10,23,06,04,10.80
2016,10,23,06,05,10.80
2016,10,23,06,06,10.80
2016,10,23,06,07,10.80
2016,10,23,06,08,10.80
2016,10,23,06,09,10.80
2016,10,23,06,10,10.70
2016,10,23,06,11,10.70
2016,10,23,06,12,10.70
2016,10,23,06,13,10.70
2016,10,23,06,14,10.70
2016,10,23,06,15,10.70
2016,10,23,06,16,10.70
2016,10,23,06,17,10.70
2016,10,23,06,18,10.70
2016,10,23,06,19,10.70
2016,10,23,06,20,10.70
2016,10,23,06,21,10.70
2016,10,23,06,22,10.60
2016,10,23,06,23,10.60
2016,10,23,06,24,10.60
2016,10,23,06,25,10.60
2016,10,23,06,26,10.60
2016,10,23,06,27,10.60
2016,10,23,06,28,10.60
2016,10,23,06,29,10.60
2016,10,23,06,30,10.60
2016,10,23,06,31,10.60
2016,10,23,06,32,10.50
2016,10,23,06,33,10.50
2016,10,23,06,34,10.50
2016,10,23,06,35,10.50
2016,10,23,06,36,10.40
2016,10,23,06,37,10.40
2016,10,23,06,38,10.40
2016,10,23,06,39,10.40
2016,10,23,06,40,10.40
2016,10,23,06,41,10.40
2016,10,23,06,42,10.40
2016,10,23,06,43,10.40
2016,10,23,06,44,10.40
2016,10,23,06,45,10.40
2016,10,23,06,46,10.30
2016,10,23,06,47,10.30
2016,10,23,06,48,10.30
2016,10,23,06,49,10.30
2016,10,23,06,50,10.30
2016,10,23,06,51,10.30
2016,10,23,06,52,10.30
2016,10,23,06,53,10.30
2016,10,23,06,54,10.30
2016,10,23,06,55,10.30
2016,10,23,06,56,10.20
2016,10,23,06,57,10.20
2016,10,23,06,58,10.20
2016,10,23,06,59,10.20
2016,10,23,07,00,10.20
2016,10,23,07,01,10.20
2016,10,23,07,02,10.20
2016,10,23,07,03,10.20
2016,10,23,07,04,10.20
2016,10,23,07,05,10.20
2016,10,23,07,06,10.20
2016,10,23,07,07,10.20
2016,10,23,07,08,10.20
2016,10,23,07,09,10.20
2016,10,23,07,10,10.20
2016,10,23,07,11,10.20
2016,10,23,07,12,10.10
2016,10,23,07,13,10.10
2016,10,23,07,14,10.10
2016,10,23,07,15,10.10
2016,10,23,07,16,10.10
2016,10,23,07,17,10.10
2016,10,23,07,18,10.10
2016,10,23,07,19,10.10
2016,10,23,07,20,10.10
2016,10,23,07,21,10.10
2016,10,23,07,22,10.00
2016,10,23,07,23,10.00
2016,10,23,07,24,10.00
2016,10,23,07,25,9.90
2016,10,23,07,26,9.90
2016,10,23,07,27,9.90
2016,10,23,07,28,9.90
2016,10,23,07,29,9.90
2016,10,23,07,30,9.80
2016,10,23,07,31,9.80
2016,10,23,07,32,9.80
2016,10,23,07,33,9.80
2016,10,23,07,34,9.80
2016,10,23,07,35,9.70
2016,10,23,07,36,9.70
2016,10,23,07,37,9.70
2016,10,23,07,38,9.70
2016,10,23,07,39,9.70
2016,10,23,07,40,9.70
2016,10,23,07,41,9.60
2016,10,23,07,42,9.60
2016,10,23,07,43,9.60
2016,10,23,07,44,9.60
2016,10,23,07,45,9.60
2016,10,23,07,46,9.60
2016,10,23,07,47,9.60
2016,10,23,07,48,9.50
2016,10,23,07,49,9.50
2016,10,23,07,50,9.40
2016,10,23,07,51,9.40
2016,10,23,07,52,9.40
2016,10,23,07,53,9.40
2016,10,23,07,54,9.30
2016,10,23,07,55,9.30
2016,10,23,07,56,9.30
2016,10,23,07,57,9.30
2016,10,23,07,58,9.30
2016,10,23,07,59,9.30
2016,10,23,08,00,9.30
2016,10,23,08,01,9.30
2016,10,23,08,02,9.30
2016,10,23,08,03,9.30
2016,10,23,08,04,9.20
2016,10,23,08,05,9.20
2016,10,23,08,06,9.20
2016,10,23,08,07,9.20
2016,10,23,08,08,9.20
2016,10,23,08,09,9.20
2016,10,23,08,10,9.20
2016,10,23,08,11,9.20
2016,10,23,08,12,9.20
2016,10,23,08,13,9.20
2016,10,23,08,14,9.20
2016,10,23,08,15,9.20
2016,10,23,08,16,9.20
2016,10,23,08,17,9.20
2016,10,23,08,18,9.20
2016,10,23,08,19,9.20
2016,10,23,08,20,9.20
2016,10,23,08,21,9.20
2016,10,23,08,22,9.20
2016,10,23,08,23,9.20
2016,10,23,08,24,9.20
2016,10,23,08,25,9.20
2016,10,23,08,26,9.20
2016,10,23,08,27,9.30
2016,10,23,08,28,9.30
2016,10,23,08,29,9.30
2016,10,23,08,30,9.30
2016,10,23,08,31,9.30
2016,10,23,08,32,9.30
2016,10,23,08,33,9.30
2016,10,23,08,34,9.30
2016,10,23,08,35,9.30
2016,10,23,08,36,9.30
2016,10,23,08,37,9.30
2016,10,23,08,38,9.30
2016,10,23,08,39,9.30
2016,10,23,08,40,9.30
2016,10,23,08,41,9.30
2016,10,23,08,42,9.30
2016,10,23,08,43,9.30
2016,10,23,08,44,9.30
2016,10,23,08,45,9.30
2016,10,23,08,46,9.30
2016,10,23,08,47,9.30
2016,10,23,08,48,9.30
2016,10,23,08,49,9.30
2016,10,23,08,50,9.20
2016,10,23,08,51,9.20
2016,10,23,08,52,9.20
2016,10,23,08,53,9.20
2016,10,23,08,54,9.20
2016,10,23,08,55,9.20
2016,10,23,08,56,9.20
2016,10,23,08,57,9.20
2016,10,23,08,58,9.30
2016,10,23,08,59,9.30
2016,10,23,09,00,9.30
2016,10,23,09,01,9.40
2016,10,23,09,02,9.40
2016,10,23,09,03,9.40
2016,10,23,09,04,9.50
2016,10,23,09,05,9.50
2016,10,23,09,06,9.50
2016,10,23,09,07,9.60
2016,10,23,09,08,9.60
2016,10,23,09,09,9.60
2016,10,23,09,10,9.60
2016,10,23,09,11,9.60
2016,10,23,09,12,9.60
2016,10,23,09,13,9.70
2016,10,23,09,14,9.70
2016,10,23,09,15,9.80
2016,10,23,09,16,9.80
2016,10,23,09,17,9.90
2016,10,23,09,18,9.90
2016,10,23,09,19,9.90
2016,10,23,09,20,9.90
2016,10,23,09,21,10.00
2016,10,23,09,22,10.00
2016,10,23,09,23,10.10
2016,10,23,09,24,10.10
2016,10,23,09,25,10.10
2016,10,23,09,26,10.10
2016,10,23,09,27,10.20
2016,10,23,09,28,10.20
2016,10,23,09,29,10.20
2016,10,23,09,30,10.20
2016,10,23,09,31,10.20
2016,10,23,09,32,10.30
2016,10,23,09,33,10.30
2016,10,23,09,34,10.30
2016,10,23,09,35,10.30
2016,10,23,09,36,10.40
2016,10,23,09,37,10.50
2016,10,23,09,38,10.50
2016,10,23,09,39,10.50
2016,10,23,09,40,10.60
2016,10,23,09,41,10.70
2016,10,23,09,42,10.70
2016,10,23,09,43,10.70
2016,10,23,09,44,10.70
2016,10,23,09,45,10.80
2016,10,23,09,46,10.80
2016,10,23,09,47,10.80
2016,10,23,09,48,10.90
2016,10,23,09,49,10.90
2016,10,23,09,50,10.90
2016,10,23,09,51,11.00
2016,10,23,09,52,11.00
2016,10,23,09,53,11.00
2016,10,23,09,54,11.10
2016,10,23,09,55,11.10
2016,10,23,09,56,11.10
2016,10,23,09,57,11.20
2016,10,23,09,58,11.20
2016,10,23,09,59,11.30
2016,10,23,10,00,11.30
2016,10,23,10,01,11.30
2016,10,23,10,02,11.30
2016,10,23,10,03,11.40
2016,10,23,10,04,11.50
2016,10,23,10,05,11.60
2016,10,23,10,06,11.70
2016,10,23,10,07,11.80
2016,10,23,10,08,11.80
2016,10,23,10,09,11.90
2016,10,23,10,10,12.00
2016,10,23,10,11,12.10
2016,10,23,10,12,12.10
2016,10,23,10,13,12.10
2016,10,23,10,14,12.20
2016,10,23,10,15,12.20
2016,10,23,10,16,12.30
2016,10,23,10,17,12.30
2016,10,23,10,18,12.30
2016,10,23,10,19,12.30
2016,10,23,10,20,12.30
2016,10,23,10,21,12.30
2016,10,23,10,22,12.30
2016,10,23,10,23,12.30
2016,10,23,10,24,12.30
2016,10,23,10,25,12.30
2016,10,23,10,26,12.30
2016,10,23,10,27,12.30
2016,10,23,10,28,12.30
2016,10,23,10,29,12.30
2016,10,23,10,30,12.40
2016,10,23,10,31,12.40
2016,10,23,10,32,12.50
2016,10,23,10,33,12.60
2016,10,23,10,34,12.60
2016,10,23,10,35,12.70
2016,10,23,10,36,12.70
2016,10,23,10,37,12.80
2016,10,23,10,38,12.80
2016,10,23,10,39,12.80
2016,10,23,10,40,12.80
2016,10,23,10,41,12.80
2016,10,23,10,42,12.90
2016,10,23,10,43,12.90
2016,10,23,10,44,12.90
2016,10,23,10,45,12.90
2016,10,23,10,46,13.00
2016,10,23,10,47,13.10
2016,10,23,10,48,13.10
2016,10,23,10,49,13.10
2016,10,23,10,50,13.20
2016,10,23,10,51,13.20
2016,10,23,10,52,13.20
2016,10,23,10,53,13.30
2016,10,23,10,54,13.40
2016,10,23,10,55,13.40
2016,10,23,10,56,13.50
2016,10,23,10,57,13.50
2016,10,23,10,58,13.50
2016,10,23,10,59,13.50
2016,10,23,11,00,13.50
2016,10,23,11,01,13.60
2016,10,23,11,02,13.60
2016,10,23,11,03,13.60
2016,10,23,11,04,13.60
2016,10,23,11,05,13.50
2016,10,23,11,06,13.50
2016,10,23,11,07,13.50
2016,10,23,11,08,13.60
2016,10,23,11,09,13.60
2016,10,23,11,10,13.60
2016,10,23,11,11,13.70
2016,10,23,11,12,13.70
2016,10,23,11,13,13.70
2016,10,23,11,14,13.80
2016,10,23,11,15,13.80
2016,10,23,11,16,13.80
2016,10,23,11,17,13.80
2016,10,23,11,18,13.70
2016,10,23,11,19,13.70
2016,10,23,11,20,13.60
2016,10,23,11,21,13.50
2016,10,23,11,22,13.40
2016,10,23,11,23,13.40
2016,10,23,11,24,13.40
2016,10,23,11,25,13.40
2016,10,23,11,26,13.50
2016,10,23,11,27,13.50
2016,10,23,11,28,13.50
2016,10,23,11,29,13.40
2016,10,23,11,30,13.40
2016,10,23,11,31,13.40
2016,10,23,11,32,13.30
2016,10,23,11,33,13.30
2016,10,23,11,34,13.30
2016,10,23,11,35,13.30
2016,10,23,11,36,13.30
2016,10,23,11,37,13.40
2016,10,23,11,38,13.40
2016,10,23,11,39,13.40
2016,10,23,11,40,13.50
2016,10,23,11,41,13.50
2016,10,23,11,42,13.50
2016,10,23,11,43,13.50
2016,10,23,11,44,13.50
2016,10,23,11,45,13.50
2016,10,23,11,46,13.50
2016,10,23,11,47,13.60
2016,10,23,11,48,13.60
2016,10,23,11,49,13.60
2016,10,23,11,50,13.60
2016,10,23,11,51,13.70
2016,10,23,11,52,13.70
2016,10,23,11,53,13.70
2016,10,23,11,54,13.70
2016,10,23,11,55,13.70
2016,10,23,11,56,13.70
2016,10,23,11,57,13.70
2016,10,23,11,58,13.70
2016,10,23,11,59,13.70
2016,10,23,12,00,13.70
2016,10,23,12,01,13.70
2016,10,23,12,02,13.70
2016,10,23,12,03,13.70
2016,10,23,12,04,13.70
2016,10,23,12,05,13.70
2016,10,23,12,06,13.70
2016,10,23,12,07,13.80
2016,10,23,12,08,13.80
2016,10,23,12,09,13.80
2016,10,23,12,10,13.80
2016,10,23,12,11,13.80
2016,10,23,12,12,13.80
2016,10,23,12,13,13.80
2016,10,23,12,14,13.80
2016,10,23,12,15,13.90
2016,10,23,12,16,13.90
2016,10,23,12,17,13.90
2016,10,23,12,18,13.90
2016,10,23,12,19,13.90
2016,10,23,12,20,13.90
2016,10,23,12,21,13.90
2016,10,23,12,22,13.90
2016,10,23,12,23,13.90
2016,10,23,12,24,13.90
2016,10,23,12,25,13.90
2016,10,23,12,26,13.90
2016,10,23,12,27,13.90
2016,10,23,12,28,13.90
2016,10,23,12,29,13.80
2016,10,23,12,30,13.90
2016,10,23,12,31,13.90
2016,10,23,12,32,13.90
2016,10,23,12,33,13.90
2016,10,23,12,34,14.00
2016,10,23,12,35,14.00
2016,10,23,12,36,14.00
2016,10,23,12,37,14.00
2016,10,23,12,38,14.10
2016,10,23,12,39,14.10
2016,10,23,12,40,14.10
2016,10,23,12,41,14.00
2016,10,23,12,42,13.90
2016,10,23,12,43,13.80
2016,10,23,12,44,13.80
2016,10,23,12,45,13.70
2016,10,23,12,46,13.70
2016,10,23,12,47,13.70
2016,10,23,12,48,13.70
2016,10,23,12,49,13.70
2016,10,23,12,50,13.70
2016,10,23,12,51,13.70
2016,10,23,12,52,13.70
2016,10,23,12,53,13.70
2016,10,23,12,54,13.70
2016,10,23,12,55,13.70
2016,10,23,12,56,13.70
2016,10,23,12,57,13.70
2016,10,23,12,58,13.70
2016,10,23,12,59,13.70
2016,10,23,13,00,13.70
2016,10,23,13,01,13.70
2016,10,23,13,02,13.70
2016,10,23,13,03,13.70
2016,10,23,13,04,13.70
2016,10,23,13,05,13.70
2016,10,23,13,06,13.70
2016,10,23,13,07,13.70
2016,10,23,13,08,13.70
2016,10,23,13,09,13.70
2016,10,23,13,10,13.70
2016,10,23,13,11,13.80
2016,10,23,13,12,13.80
2016,10,23,13,13,13.80
2016,10,23,13,14,13.80
2016,10,23,13,15,13.80
2016,10,23,13,16,13.70
2016,10,23,13,17,13.70
2016,10,23,13,18,13.70
2016,10,23,13,19,13.70
2016,10,23,13,20,13.70
2016,10,23,13,21,13.70
2016,10,23,13,22,13.60
2016,10,23,13,23,13.60
2016,10,23,13,24,13.60
2016,10,23,13,25,13.60
2016,10,23,13,26,13.50
2016,10,23,13,27,13.50
2016,10,23,13,28,13.50
2016,10,23,13,29,13.50
2016,10,23,13,30,13.60
2016,10,23,13,31,13.60
2016,10,23,13,32,13.60
2016,10,23,13,33,13.70
2016,10,23,13,34,13.70
2016,10,23,13,35,13.70
2016,10,23,13,36,13.70
2016,10,23,13,37,13.80
2016,10,23,13,38,13.80
2016,10,23,13,39,13.90
2016,10,23,13,40,13.90
2016,10,23,13,41,14.00
2016,10,23,13,42,14.00
2016,10,23,13,43,14.00
2016,10,23,13,44,14.00
2016,10,23,13,45,14.00
2016,10,23,13,46,14.00
2016,10,23,13,47,14.00
2016,10,23,13,48,14.10
2016,10,23,13,49,14.10
2016,10,23,13,50,14.10
2016,10,23,13,51,14.10
2016,10,23,13,52,14.10
2016,10,23,13,53,14.10
2016,10,23,13,54,14.00
2016,10,23,13,55,14.00
2016,10,23,13,56,13.90
2016,10,23,13,57,13.90
2016,10,23,13,58,13.90
2016,10,23,13,59,14.00
2016,10,23,14,00,14.00
2016,10,23,14,01,14.00
2016,10,23,14,02,14.00
2016,10,23,14,03,14.00
2016,10,23,14,04,14.10
2016,10,23,14,05,14.10
2016,10,23,14,06,14.10
2016,10,23,14,07,14.10
2016,10,23,14,08,14.00
2016,10,23,14,09,13.90
2016,10,23,14,10,13.90
2016,10,23,14,11,13.90
2016,10,23,14,12,13.90
2016,10,23,14,13,13.90
2016,10,23,14,14,13.90
2016,10,23,14,15,13.80
2016,10,23,14,16,13.80
2016,10,23,14,17,13.80
2016,10,23,14,18,13.70
2016,10,23,14,19,13.70
2016,10,23,14,20,13.70
2016,10,23,14,21,13.60
2016,10,23,14,22,13.60
2016,10,23,14,23,13.60
2016,10,23,14,24,13.50
2016,10,23,14,25,13.50
2016,10,23,14,26,13.40
2016,10,23,14,27,13.40
2016,10,23,14,28,13.30
2016,10,23,14,29,13.30
2016,10,23,14,30,13.30
2016,10,23,14,31,13.20
2016,10,23,14,32,13.20
2016,10,23,14,33,13.20
2016,10,23,14,34,13.20
2016,10,23,14,35,13.20
2016,10,23,14,36,13.20
2016,10,23,14,37,13.20
2016,10,23,14,38,13.20
2016,10,23,14,39,13.30
2016,10,23,14,40,13.30
2016,10,23,14,41,13.30
2016,10,23,14,42,13.30
2016,10,23,14,43,13.30
2016,10,23,14,44,13.30
2016,10,23,14,45,13.30
2016,10,23,14,46,13.40
2016,10,23,14,47,13.40
2016,10,23,14,48,13.40
2016,10,23,14,49,13.40
2016,10,23,14,50,13.40
2016,10,23,14,51,13.40
2016,10,23,14,52,13.40
2016,10,23,14,53,13.40
2016,10,23,14,54,13.50
2016,10,23,14,55,13.50
2016,10,23,14,56,13.50
2016,10,23,14,57,13.50
2016,10,23,14,58,13.50
2016,10,23,14,59,13.50
2016,10,23,15,00,13.60
2016,10,23,15,01,13.60
2016,10,23,15,02,13.50
2016,10,23,15,03,13.50
2016,10,23,15,04,13.50
2016,10,23,15,05,13.50
2016,10,23,15,06,13.50
2016,10,23,15,07,13.50
2016,10,23,15,08,13.50
2016,10,23,15,09,13.50
2016,10,23,15,10,13.40
2016,10,23,15,11,13.40
2016,10,23,15,12,13.40
2016,10,23,15,13,13.30
2016,10,23,15,14,13.30
2016,10,23,15,15,13.30
2016,10,23,15,16,13.30
2016,10,23,15,17,13.30
2016,10,23,15,18,13.30
2016,10,23,15,19,13.30
2016,10,23,15,20,13.30
2016,10,23,15,21,13.30
2016,10,23,15,22,13.40
2016,10,23,15,23,13.40
2016,10,23,15,24,13.40
2016,10,23,15,25,13.40
2016,10,23,15,26,13.40
2016,10,23,15,27,13.40
2016,10,23,15,28,13.40
2016,10,23,15,29,13.40
2016,10,23,15,30,13.40
2016,10,23,15,31,13.30
2016,10,23,15,32,13.30
2016,10,23,15,33,13.30
2016,10,23,15,34,13.30
2016,10,23,15,35,13.30
2016,10,23,15,36,13.30
2016,10,23,15,37,13.30
2016,10,23,15,38,13.30
2016,10,23,15,39,13.30
2016,10,23,15,40,13.30
2016,10,23,15,41,13.30
2016,10,23,15,42,13.30
2016,10,23,15,43,13.30
2016,10,23,15,44,13.40
2016,10,23,15,45,13.40
2016,10,23,15,46,13.40
2016,10,23,15,47,13.40
2016,10,23,15,48,13.40
2016,10,23,15,49,13.40
2016,10,23,15,50,13.40
2016,10,23,15,51,13.40
2016,10,23,15,52,13.50
2016,10,23,15,53,13.50
2016,10,23,15,54,13.50
2016,10,23,15,55,13.50
2016,10,23,15,56,13.60
2016,10,23,15,57,13.60
2016,10,23,15,58,13.60
2016,10,23,15,59,13.60
2016,10,23,16,00,13.60
2016,10,23,16,01,13.60
2016,10,23,16,02,13.60
2016,10,23,16,03,13.60
2016,10,23,16,04,13.60
2016,10,23,16,05,13.60
2016,10,23,16,06,13.60
2016,10,23,16,07,13.60
2016,10,23,16,08,13.60
2016,10,23,16,09,13.60
2016,10,23,16,10,13.50
2016,10,23,16,11,13.50
2016,10,23,16,12,13.50
2016,10,23,16,13,13.40
2016,10,23,16,14,13.40
2016,10,23,16,15,13.40
2016,10,23,16,16,13.30
2016,10,23,16,17,13.30
2016,10,23,16,18,13.30
2016,10,23,16,19,13.30
2016,10,23,16,20,13.30
2016,10,23,16,21,13.30
2016,10,23,16,22,13.30
2016,10,23,16,23,13.30
2016,10,23,16,24,13.30
2016,10,23,16,25,13.30
2016,10,23,16,26,13.30
2016,10,23,16,27,13.30
2016,10,23,16,28,13.30
2016,10,23,16,29,13.20
2016,10,23,16,30,13.30
2016,10,23,16,31,13.30
2016,10,23,16,32,13.20
2016,10,23,16,33,13.20
2016,10,23,16,34,13.20
2016,10,23,16,35,13.20
2016,10,23,16,36,13.20
2016,10,23,16,37,13.20
2016,10,23,16,38,13.20
2016,10,23,16,39,13.20
2016,10,23,16,40,13.20
2016,10,23,16,41,13.20
2016,10,23,16,42,13.20
2016,10,23,16,43,13.20
2016,10,23,16,44,13.20
2016,10,23,16,45,13.20
2016,10,23,16,46,13.20
2016,10,23,16,47,13.20
2016,10,23,16,48,13.20
2016,10,23,16,49,13.20
2016,10,23,16,50,13.20
2016,10,23,16,51,13.20
2016,10,23,16,52,13.20
2016,10,23,16,53,13.20
2016,10,23,16,54,13.20
2016,10,23,16,55,13.20
2016,10,23,16,56,13.20
2016,10,23,16,57,13.20
2016,10,23,16,58,13.20
2016,10,23,16,59,13.20
2016,10,23,17,00,13.20
2016,10,23,17,01,13.20
2016,10,23,17,02,13.20
2016,10,23,17,03,13.20
2016,10,23,17,04,13.20
2016,10,23,17,05,13.20
2016,10,23,17,06,13.20
2016,10,23,17,07,13.20
2016,10,23,17,08,13.20
2016,10,23,17,09,13.20
2016,10,23,17,10,13.20
2016,10,23,17,11,13.10
2016,10,23,17,12,13.10
2016,10,23,17,13,13.10
2016,10,23,17,14,13.10
2016,10,23,17,15,13.10
2016,10,23,17,16,13.10
2016,10,23,17,17,13.00
2016,10,23,17,18,13.00
2016,10,23,17,19,13.00
2016,10,23,17,20,12.90
2016,10,23,17,21,12.90
2016,10,23,17,22,12.90
2016,10,23,17,23,12.90
2016,10,23,17,24,12.80
2016,10,23,17,25,12.80
2016,10,23,17,26,12.80
2016,10,23,17,27,12.80
2016,10,23,17,28,12.80
2016,10,23,17,29,12.80
2016,10,23,17,30,12.70
2016,10,23,17,31,12.70
2016,10,23,17,32,12.70
2016,10,23,17,33,12.70
2016,10,23,17,34,12.70
2016,10,23,17,35,12.70
2016,10,23,17,36,12.70
2016,10,23,17,37,12.70
2016,10,23,17,38,12.60
2016,10,23,17,39,12.60
2016,10,23,17,40,12.60
2016,10,23,17,41,12.60
2016,10,23,17,42,12.60
2016,10,23,17,43,12.60
2016,10,23,17,44,12.60
2016,10,23,17,45,12.60
2016,10,23,17,46,12.60
2016,10,23,17,47,12.60
2016,10,23,17,48,12.60
2016,10,23,17,49,12.60
2016,10,23,17,50,12.60
2016,10,23,17,51,12.50
2016,10,23,17,52,12.50
2016,10,23,17,53,12.50
2016,10,23,17,54,12.50
2016,10,23,17,55,12.50
2016,10,23,17,56,12.50
2016,10,23,17,57,12.50
2016,10,23,17,58,12.50
2016,10,23,17,59,12.50
2016,10,23,18,00,12.50
2016,10,23,18,01,12.50
2016,10,23,18,02,12.50
2016,10,23,18,03,12.50
2016,10,23,18,04,12.50
2016,10,23,18,05,12.50
2016,10,23,18,06,12.50
2016,10,23,18,07,12.50
2016,10,23,18,08,12.40
2016,10,23,18,09,12.40
2016,10,23,18,10,12.40
2016,10,23,18,11,12.40
2016,10,23,18,12,12.40
2016,10,23,18,13,12.40
2016,10,23,18,14,12.40
2016,10,23,18,15,12.40
2016,10,23,18,16,12.40
2016,10,23,18,17,12.40
2016,10,23,18,18,12.40
2016,10,23,18,19,12.40
2016,10,23,18,20,12.40
2016,10,23,18,21,12.40
2016,10,23,18,22,12.40
2016,10,23,18,23,12.40
2016,10,23,18,24,12.40